[[{"header":{"parameterUnit":"m.s-1","parameterCategory":1,"la1":30.2991,"la2":30.254,"lo1":-89.0895,"lo2":-89.0444,"dy":0.0017,"dx":0.0017,"nx":28,"ny":28,"refTime":"2025-08-26T03:00:00:Z","depth":0,"parameterNumber":2,"parameterNumberName":"U-component_of_WINDS"},"data":[0,0,0,0,0,0,0,0,0,0,0,0,0,0,0,0,0,0,0,0,0,0,0,0,0,0,0,0,0,0,0,0,0,0,0,0,0,0,0,0,0,0,0,0,0,0,0,0,0,0,0,0,0,0,0,0,0,0,-0.0804,-0.0804,0,-0.0762,-0.0761,-0.0761,-0.0704,-0.0703,-0.0702,-0.0701,-0.0659,-0.0659,-0.0659,0,0,0,0,0,0,0,0,0,0,0,0,0,-0.0839,-0.0839,-0.0804,-0.0804,-0.0803,-0.0762,-0.0761,-0.0761,-0.0704,-0.0703,-0.0702,-0.0701,-0.0659,-0.0659,-0.0659,0,0,0,0,0,0,0,0,0,0,0,0,0,-0.0813,-0.0839,-0.0805,-0.077,-0.0767,-0.0762,-0.0761,-0.076,-0.0704,-0.0703,-0.0701,-0.07,-0.0659,-0.0659,-0.0659,-0.0685,0,0,-0.0657,-0.0657,0,0,0,0,0,0,0,0,-0.0815,-0.0812,-0.0776,-0.0772,-0.0768,-0.0737,-0.0758,-0.0735,-0.0705,-0.0728,-0.0701,-0.0699,-0.0686,-0.0683,-0.0679,-0.0683,-0.0681,-0.0657,-0.0657,-0.0657,-0.0657,0,0,0,0,0,0,0,-0.0816,-0.0813,-0.0788,-0.0775,-0.0771,-0.0757,-0.0752,-0.0753,-0.0716,-0.0726,-0.0722,-0.0717,-0.0684,-0.0679,-0.0677,-0.068,-0.0657,-0.0657,-0.0657,-0.0657,-0.0705,-0.0707,0,0,0,0,0,0,-0.0823,-0.0815,-0.0789,-0.0786,-0.0788,-0.0758,-0.0752,-0.0748,-0.0715,-0.0709,-0.0718,-0.0715,-0.068,-0.0678,-0.0676,-0.0705,-0.0657,-0.0657,-0.0657,-0.0704,-0.0706,-0.0707,0,0,0,0,0,0,-0.0824,-0.0821,-0.0791,-0.08,-0.0795,-0.0759,-0.0755,-0.0748,-0.0743,-0.071,-0.0703,-0.072,-0.0679,-0.0676,-0.0683,-0.0703,-0.0657,-0.0656,-0.0702,-0.0704,-0.0706,-0.0764,0,0,0,0,0,0,-0.0825,-0.0822,-0.0831,-0.08,-0.0794,-0.0799,-0.0756,-0.0748,-0.0743,-0.0737,-0.071,-0.0704,-0.0678,-0.0684,-0.0683,-0.0702,-0.0656,-0.07,-0.0703,-0.0706,-0.076,-0.0768,-0.0775,0,0,0,0,0,-0.0827,-0.0849,-0.0832,-0.0829,-0.0805,-0.08,-0.0796,-0.0765,-0.0744,-0.0754,-0.0732,-0.0705,-0.0701,-0.0685,-0.0683,-0.0702,-0.0699,-0.0702,-0.0705,-0.0757,-0.0767,-0.0774,0,0,0,0,0,0,-0.0884,-0.0845,-0.0825,-0.0838,-0.0823,-0.079,-0.0801,-0.0776,-0.0767,-0.0763,-0.0725,-0.0719,-0.0731,-0.0717,-0.0701,-0.0727,-0.0696,-0.0699,-0.0736,-0.0744,-0.0751,-0.0755,-0.0656,0,0,0,0,0,-0.0898,-0.0897,-0.0862,-0.0877,-0.087,-0.0837,-0.0834,-0.0811,-0.0794,-0.0787,-0.0766,-0.0751,-0.0747,-0.0744,-0.0738,-0.0758,-0.0751,-0.077,-0.0777,-0.0783,-0.0787,-0.0797,-0.0805,-0.0718,-0.0718,-0.0718,0,0,-0.0927,-0.0906,-0.0907,-0.0888,-0.0873,-0.0874,-0.0832,-0.0834,-0.0834,-0.0788,-0.0793,-0.0777,-0.0758,-0.0772,-0.0777,-0.0761,-0.0809,-0.0787,-0.0792,-0.0793,-0.0801,-0.081,-0.0817,-0.0721,-0.072,-0.072,0,0,-0.0981,-0.0964,-0.0975,-0.0961,-0.0939,-0.0917,-0.092,-0.0891,-0.0879,-0.0883,-0.0849,-0.0849,-0.0841,-0.0829,-0.0822,-0.0872,-0.0847,-0.0871,-0.0909,-0.0919,-0.0926,-0.0932,-0.0951,-0.0958,-0.0874,-0.0874,-0.0874,0,-0.102,-0.1018,-0.0984,-0.0988,-0.0981,-0.0939,-0.095,-0.0938,-0.0916,-0.0913,-0.0895,-0.0885,-0.0869,-0.088,-0.0892,-0.0887,-0.089,-0.0874,-0.0928,-0.0934,-0.0939,-0.0956,-0.0963,-0.0877,-0.0877,-0.0877,-0.0876,0,-0.1069,-0.1068,-0.1079,-0.1059,-0.1053,-0.1061,-0.1028,-0.1027,-0.1004,-0.0985,-0.0991,-0.097,-0.0959,-0.096,-0.0938,-0.0968,-0.0959,-0.0935,-0.0903,-0.0951,-0.0967,-0.0973,-0.0882,-0.0881,-0.088,-0.0879,0,0,-0.1158,-0.1118,-0.1123,-0.1113,-0.1086,-0.1085,-0.1091,-0.108,-0.1081,-0.1067,-0.1072,-0.1066,-0.1044,-0.1036,-0.1013,-0.1022,-0.1064,-0.0997,-0.0996,-0.1012,-0.1097,-0.1117,-0.1125,-0.1047,-0.1048,-0.1049,-0.1099,0,-0.1207,-0.1215,-0.1184,-0.1201,-0.12,-0.116,-0.1165,-0.115,-0.1132,-0.1129,-0.1108,-0.1106,-0.1076,-0.1071,-0.1078,-0.1058,-0.1081,-0.1053,-0.1053,-0.1053,-0.106,-0.1133,-0.1153,-0.1202,-0.1105,-0.1106,-0.1107,0,-0.1266,-0.1255,-0.1272,-0.1244,-0.1243,-0.1249,-0.1236,-0.1234,-0.1216,-0.1202,-0.1193,-0.1166,-0.1171,-0.114,-0.1147,-0.1129,-0.1127,-0.1117,-0.1118,-0.1118,-0.1084,-0.1136,-0.1216,-0.1224,-0.1116,-0.1116,-0.1115,0,-0.1332,-0.1321,-0.1329,-0.1322,-0.129,-0.1295,-0.1282,-0.1263,-0.1258,-0.1248,-0.1245,-0.1235,-0.1231,-0.1224,-0.1196,-0.1175,-0.1207,-0.1173,-0.1196,-0.1197,-0.1206,-0.1206,-0.1288,-0.1202,-0.1202,-0.1202,-0.1202,0,-0.1391,-0.1403,-0.1358,-0.1364,-0.1376,-0.1341,-0.1354,-0.1337,-0.132,-0.1322,-0.1287,-0.129,-0.1251,-0.125,-0.1228,-0.1238,-0.1235,-0.1225,-0.1219,-0.1229,-0.1231,-0.1228,-0.1225,-0.1204,-0.1203,-0.1203,-0.1203,0,-0.1467,-0.1437,-0.1444,-0.1413,-0.1405,-0.1416,-0.139,-0.1394,-0.1373,-0.1377,-0.1375,-0.1343,-0.134,-0.131,-0.1301,-0.1286,-0.1305,-0.1292,-0.1311,-0.1308,-0.1333,-0.1332,-0.1418,-0.1428,-0.1334,-0.1335,-0.1336,0,-0.1507,-0.1515,-0.1485,-0.1484,-0.1473,-0.1471,-0.1466,-0.1431,-0.1428,-0.1409,-0.1416,-0.1409,-0.1403,-0.14,-0.1376,-0.1369,-0.1356,-0.1387,-0.1355,-0.1365,-0.1358,-0.1359,-0.136,-0.1394,-0.1395,-0.1396,-0.1397,0,-0.1583,-0.1568,-0.1562,-0.1552,-0.1547,-0.1537,-0.1525,-0.1526,-0.1488,-0.1486,-0.1483,-0.1477,-0.1468,-0.1463,-0.1451,-0.1438,-0.1412,-0.1407,-0.1412,-0.1423,-0.1434,-0.143,-0.1331,-0.1406,-0.1405,-0.1404,-0.1404,-0.1403,-0.1643,-0.1648,-0.1628,-0.1624,-0.1611,-0.1601,-0.1603,-0.1583,-0.1579,-0.1568,-0.1548,-0.1547,-0.153,-0.1511,-0.1501,-0.1501,-0.1485,-0.1492,-0.1494,-0.1497,-0.1503,-0.1433,-0.1498,-0.1498,-0.1498,-0.1498,-0.1497,0,-0.1718,-0.1703,-0.1698,-0.1683,-0.1679,-0.1653,-0.1639,-0.1638,-0.1638,-0.1623,-0.1618,-0.1614,-0.1609,-0.1584,-0.1577,-0.1581,-0.1569,-0.1581,-0.1581,-0.1579,-0.1517,-0.1514,-0.1591,-0.1591,-0.1591,-0.1591,-0.1591,-0.1591,-0.1756,-0.1765,-0.1748,-0.175,-0.1735,-0.1734,-0.1728,-0.1719,-0.1707,-0.1705,-0.17,-0.1684,-0.1666,-0.1657,-0.1651,-0.1644,-0.1644,-0.166,-0.1649,-0.1592,-0.1583,-0.1574,-0.1571,-0.1659,-0.166,-0.1711,-0.1711,-0.1712]},{"header":{"parameterUnit":"m.s-1","parameterCategory":1,"la1":30.2991,"la2":30.254,"lo1":-89.0895,"lo2":-89.0444,"dy":0.0017,"dx":0.0017,"nx":28,"ny":28,"refTime":"2025-08-26T03:00:00:Z","depth":0,"parameterNumber":3,"parameterNumberName":"V-component_of_WINDS"},"data":[0,0,0,0,0,0,0,0,0,0,0,0,0,0,0,0,0,0,0,0,0,0,0,0,0,0,0,0,0,0,0,0,0,0,0,0,0,0,0,0,0,0,0,0,0,0,0,0,0,0,0,0,0,0,0,0,0,0,1.2886,1.2886,0,1.2827,1.2827,1.2826,1.279,1.279,1.279,1.279,1.2726,1.2725,1.2723,0,0,0,0,0,0,0,0,0,0,0,0,0,1.2965,1.2964,1.2886,1.2886,1.2885,1.2828,1.2827,1.2826,1.279,1.279,1.279,1.279,1.2727,1.2725,1.2723,0,0,0,0,0,0,0,0,0,0,0,0,0,1.2921,1.2964,1.2887,1.286,1.2857,1.2828,1.2827,1.2826,1.279,1.279,1.279,1.279,1.2727,1.2725,1.2723,1.2713,0,0,1.2716,1.2715,0,0,0,0,0,0,0,0,1.2924,1.2918,1.2865,1.2862,1.2859,1.2816,1.2831,1.2788,1.279,1.2816,1.279,1.279,1.2756,1.2751,1.2741,1.2711,1.2708,1.2716,1.2714,1.2713,1.2712,0,0,0,0,0,0,0,1.2927,1.2921,1.2863,1.2864,1.286,1.2851,1.2844,1.2823,1.2788,1.2814,1.2811,1.2805,1.2754,1.2743,1.2739,1.2707,1.2716,1.2714,1.2712,1.2711,1.2665,1.2666,0,0,0,0,0,0,1.2935,1.2924,1.2865,1.2861,1.2891,1.2849,1.2842,1.283,1.2788,1.2782,1.2805,1.2803,1.2747,1.2742,1.2737,1.2722,1.2713,1.2711,1.271,1.2665,1.2665,1.2666,0,0,0,0,0,0,1.2936,1.293,1.2867,1.2892,1.2883,1.2848,1.2835,1.2829,1.2818,1.2782,1.2775,1.28,1.2747,1.274,1.272,1.272,1.271,1.2708,1.2665,1.2665,1.2665,1.2694,0,0,0,0,0,0,1.2939,1.2931,1.2927,1.2892,1.2882,1.2852,1.2835,1.2828,1.2814,1.2811,1.2775,1.2769,1.2746,1.2723,1.2717,1.2716,1.2706,1.2665,1.2665,1.2665,1.2693,1.2696,1.2698,0,0,0,0,0,1.2942,1.2937,1.2927,1.292,1.2877,1.2852,1.2846,1.2821,1.2814,1.281,1.2787,1.277,1.2721,1.2722,1.2715,1.2713,1.2665,1.2665,1.2665,1.2692,1.2695,1.2698,0,0,0,0,0,0,1.2972,1.2932,1.2921,1.2905,1.2882,1.2846,1.284,1.2825,1.2803,1.2801,1.277,1.2762,1.2745,1.2727,1.2728,1.2701,1.2691,1.269,1.2714,1.2716,1.2718,1.2722,1.2704,0,0,0,0,0,1.2978,1.2962,1.2927,1.2916,1.2906,1.2875,1.2863,1.2846,1.2821,1.2811,1.2786,1.2762,1.2741,1.2728,1.2706,1.2691,1.2682,1.2686,1.2689,1.2691,1.269,1.2679,1.2681,1.2667,1.2667,1.2667,0,0,1.2987,1.2963,1.2955,1.2922,1.2902,1.2886,1.2867,1.285,1.2837,1.2808,1.2788,1.2769,1.2739,1.2721,1.2712,1.2706,1.2692,1.2691,1.2693,1.2691,1.268,1.2681,1.2683,1.2667,1.2667,1.2667,0,0,1.2997,1.2978,1.2966,1.2947,1.2919,1.2899,1.2896,1.2863,1.2849,1.2828,1.2806,1.279,1.2755,1.2734,1.272,1.2722,1.2705,1.2716,1.2727,1.2718,1.2719,1.2719,1.2719,1.272,1.2716,1.2716,1.2716,0,1.3012,1.2987,1.2962,1.2947,1.2932,1.2906,1.2894,1.2877,1.2842,1.2832,1.2826,1.2782,1.276,1.2737,1.2738,1.2727,1.2722,1.2719,1.2721,1.2721,1.2722,1.2721,1.2721,1.2717,1.2717,1.2717,1.2717,0,1.3007,1.299,1.2984,1.2953,1.2938,1.2924,1.2896,1.2884,1.2868,1.2848,1.2827,1.2801,1.2774,1.2767,1.2751,1.2741,1.2738,1.2727,1.2715,1.2725,1.2724,1.2724,1.2719,1.2719,1.2718,1.2718,0,0,1.3033,1.2989,1.2987,1.2972,1.2939,1.2925,1.291,1.2884,1.2874,1.2851,1.2837,1.2808,1.2798,1.2781,1.2762,1.2754,1.2757,1.2744,1.2742,1.2746,1.2744,1.2752,1.2752,1.2746,1.2746,1.2746,1.2746,0,1.3037,1.301,1.2987,1.2967,1.2951,1.2926,1.2913,1.2891,1.2872,1.2855,1.2833,1.2813,1.2801,1.2791,1.2782,1.2759,1.2756,1.2759,1.2731,1.2731,1.2739,1.2752,1.276,1.2762,1.2746,1.2746,1.2746,0,1.3037,1.3017,1.2996,1.2965,1.2957,1.2945,1.292,1.2904,1.2878,1.2865,1.2847,1.2828,1.281,1.2801,1.2775,1.2778,1.2765,1.2752,1.2752,1.2747,1.2738,1.2747,1.2762,1.2762,1.2745,1.2745,1.2745,0,1.3057,1.3024,1.3008,1.2996,1.2959,1.2951,1.2936,1.2909,1.2896,1.2873,1.2864,1.284,1.2826,1.2807,1.2782,1.2778,1.2758,1.2747,1.2746,1.2746,1.2742,1.2742,1.2754,1.2736,1.2736,1.2736,1.2736,0,1.3063,1.3051,1.3016,1.3006,1.2991,1.2965,1.2951,1.2933,1.291,1.2895,1.2873,1.2859,1.2826,1.2808,1.2788,1.277,1.2764,1.2752,1.2746,1.2753,1.2755,1.2744,1.2743,1.2736,1.2736,1.2736,1.2736,0,1.3083,1.3059,1.3039,1.3006,1.2997,1.2988,1.296,1.2948,1.2929,1.291,1.2904,1.2873,1.2851,1.2824,1.2792,1.2779,1.2762,1.2754,1.2771,1.2767,1.2767,1.2767,1.2771,1.277,1.2754,1.2754,1.2754,0,1.3088,1.3078,1.3045,1.3033,1.3018,1.3001,1.2987,1.2961,1.2947,1.2917,1.2909,1.2885,1.2864,1.283,1.2804,1.2779,1.2771,1.2774,1.2767,1.2774,1.2769,1.277,1.2769,1.2775,1.2775,1.2776,1.2776,0,1.3099,1.3087,1.3069,1.3046,1.303,1.3011,1.299,1.2982,1.2952,1.2937,1.2915,1.2899,1.2868,1.2844,1.2817,1.2799,1.2782,1.2779,1.2777,1.2783,1.2793,1.2787,1.2775,1.2778,1.2778,1.2778,1.2778,1.2778,1.311,1.31,1.3075,1.3055,1.3037,1.3019,1.3007,1.2986,1.2967,1.294,1.2926,1.2904,1.2877,1.2839,1.2822,1.2804,1.2798,1.2795,1.2794,1.2794,1.2796,1.2797,1.2799,1.2799,1.2799,1.2799,1.2798,0,1.3119,1.3102,1.3084,1.3057,1.3041,1.3028,1.3005,1.2992,1.2973,1.2951,1.2931,1.2905,1.2882,1.2855,1.283,1.282,1.2812,1.2814,1.2814,1.281,1.2803,1.2807,1.2822,1.2822,1.2822,1.2822,1.2822,1.2822,1.3122,1.3105,1.3091,1.3064,1.3047,1.3026,1.3013,1.2996,1.2978,1.295,1.2932,1.2914,1.289,1.2863,1.2841,1.2833,1.2825,1.283,1.282,1.2813,1.2811,1.2809,1.2812,1.2828,1.2828,1.2828,1.2829,1.2829]}]]